NOAA 16 DEB, 42416

Orbit data source: Space-Track

NOAA 16 DEB, 42416 is space debris in SSO originally from a launch on Thu, 21 Sep 2000 UTC launched from the Air Force Western Test Range (AFWTR). Debris objects in space refer to the collection of defunct objects orbiting the Earth. Examples of debris include non-operational satellites, rocket bodies, and fragments generated from explosions, collisions, or faulty payload assembly.

Loading next visibility...
Identifier
42416, 2000-055TL
Orbit
SSO
Country
Flag of USUS
Related business
Manufacturer
Unknown
Mission
Spacecraft
Bus & Motor
Unknown
Mass
Unknown
Launch date (UTC)
2000-09-21 (26 years ago)
Launch vehicle
Unknown
Launch site
Air Force Western Test Range (AFWTR)
Object type
Payload
Rocket body
Debris
Shape & HBR
Unknown shape, 0.1 m
Radar Cross Section
Small (<0.1 m²)

Expand to show TLE details & history
Last TLE update: 3 days ago

TLE from 3 days ago
0 NOAA 16 DEB
1 42416U 00055TL  26170.37297778  .00013710  00000-0  26390-2 0  9997
2 42416  98.8568 320.2579 0009290 248.7780 111.2428 14.63677110530190
Epoch: 2026-06-19T08:57Z
TLE epoch observation values (Epoch: 2026-06-19T08:57:05.280Z)
Latitude
-0°
Longitude
-81.61699°
Altitude
686.677 km
Speed
7.512 km/s
True Right ascension
21h 21m 01s
True Declination
0° 00' 00"
Sunlit
Object was in full shadow at epoch
Visualization orbit readout
Latitude
Unknown
Longitude
Unknown
Altitude
Unknown
Speed
Unknown
Apparent Right ascension
Unknown
Apparent Declination
Unknown
Sunlit
N/A
Visualization observer readout
Local Sidereal Time
21:38:01
Azimuth
Unknown
Elevation
Unknown
Doppler factor
Unknown
Orbital elements
Apogee altitude
684.989 km
Perigee altitude
671.878 km
Semi-major axis
7,056.571 km
Eccentricity
0.00093
Inclination
98.8568°
RAAN
320.2579°
Arg. of periapsis
248.778°
True anomaly
111.34198°
Mean anomaly
111.2428°
Eccentric anomaly
111.29239°
Mean motion
3.66145 °/min
Orbital period
98.32 mins
BSTAR
0.002639
Loading maneuver chart data...
Computing Atmospheric mass density...
Loading historical data...
Loading historical data...
Loading historical data...
Loading historical data...
Loading historical data...
Loading historical data...
Loading historical data...

Documentation

Showing up to 5 results
|